Wind_Speed
23 23 23 22 20 19 19 21 23 23 22 20 17 14 11 9 9 10 10 11 12 13 15 16 16 17 17 18 18 18 19 19 19 17 18 20 21 21 23 24 24 26 27 29 31 32 33 34 34 35 35 35 36 37 37 37 38 39 39 39 40 40 41 42 42 43 43 44 44 45 45 45 46 47 48 49 51 53 54 54 53 53 53 53 54 55 55 55
25 25 22 21 21 22 24 25 24 23 21 18 15 12 10 10 11 11 12 13 14 15 16 17 17 17 17 17 18 19 19 18 18 18 20 21 21 22 23 23 24 26 27 29 31 32 33 34 35 36 37 37 38 38 38 39 40 40 40 40 41 41 42 42 43 43 44 45 46 47 48 49 49 49 49 49 50 52 54 55 56 56 55 54 54 54 55 55
26 25 23 24 27 28 27 25 23 21 19 16 14 12 12 12 12 12 14 15 16 16 17 17 17 17 17 16 17 18 18 17 18 19 20 20 21 21 22 23 24 26 28 30 31 32 34 35 36 37 37 37 38 39 39 39 40 40 40 40 41 41 41 42 42 43 44 45 46 48 50 52 53 53 52 51 51 51 53 55 57 58 58 57 56 55 55 55
28 28 29 30 30 29 26 24 22 19 17 15 14 14 14 13 13 14 16 17 17 17 17 17 16 17 17 15 16 18 18 18 19 19 19 20 20 21 22 24 25 27 29 29 30 32 34 35 36 37 37 37 38 38 38 39 39 40 40 41 41 41 41 41 42 43 44 45 47 48 50 52 54 56 56 54 53 52 53 54 56 58 59 59 59 58 57 56
32 33 33 30 28 26 24 22 20 17 16 15 15 15 14 14 15 16 17 17 18 18 17 17 16 16 16 15 17 18 17 18 18 18 19 19 20 21 23 25 26 28 28 29 30 33 34 35 36 36 37 38 38 38 39 39 40 40 41 41 41 41 42 42 44 45 46 47 49 50 51 53 54 56 58 58 56 55 54 54 55 57 58 60 61 61 60 59
34 33 30 28 26 24 23 20 18 17 16 16 16 15 15 16 17 17 18 18 18 17 16 16 15 15 15 16 17 17 16 17 18 18 19 19 21 23 24 26 27 27 28 29 32 34 34 35 36 37 38 39 40 40 40 40 41 42 42 43 43 43 44 45 46 47 48 49 50 52 53 54 56 57 59 59 59 57 56 55 55 56 58 60 61 62 62 62
32 31 28 27 25 23 21 19 17 17 17 17 16 15 16 17 18 18 18 17 17 16 16 15 15 15 15 15 16 15 17 17 17 18 19 21 22 23 25 27 28 29 30 32 34 35 35 36 38 39 39 41 42 42 42 42 43 44 44 44 45 45 46 48 48 48 48 49 51 53 55 56 58 60 61 61 60 59 57 56 56 57 58 59 61 62 63 63
30 28 27 25 24 21 19 18 18 18 18 17 16 17 17 18 18 18 18 17 16 16 16 15 14 14 15 15 15 16 17 17 17 19 20 22 23 24 26 28 29 30 32 33 34 35 36 37 39 40 41 43 44 43 44 44 44 44 45 46 46 47 49 49 49 48 49 50 52 54 56 57 60 62 63 62 62 60 58 57 56 57 58 59 61 62 63 64
29 27 26 24 22 20 19 19 19 19 18 17 17 18 18 19 19 18 17 17 16 15 14 14 14 14 16 15 14 16 17 17 18 20 21 22 24 26 28 29 30 31 32 33 34 35 37 38 40 41 42 44 45 45 45 45 45 45 46 46 47 50 51 50 49 49 51 52 54 56 57 59 62 64 64 63 61 59 57 56 56 56 57 58 60 61 62 63
28 27 25 23 21 20 20 20 20 18 18 17 18 18 19 19 18 18 17 16 15 14 14 14 15 16 14 12 15 17 17 18 19 20 21 23 25 27 28 29 31 32 32 33 35 36 37 38 40 41 43 45 45 46 45 45 45 46 47 47 48 52 53 51 50 51 53 55 56 57 58 60 64 66 66 65 63 61 59 58 57 56 56 56 57 58 60 62
27 25 23 22 21 21 21 21 19 18 18 18 18 19 19 19 18 17 16 15 15 15 15 15 15 14 11 12 18 18 17 18 18 20 21 23 26 28 29 30 30 31 32 33 35 36 37 39 41 41 43 45 46 46 46 46 47 48 49 48 50 53 54 52 52 53 55 56 57 58 58 60 63 65 67 68 67 66 65 63 60 58 55 54 54 54 55 58
26 24 23 22 22 22 22 20 19 19 20 19 19 19 19 19 18 17 17 17 16 15 14 14 15 13 13 17 20 17 17 18 19 20 22 24 27 28 29 29 30 31 32 33 34 36 37 39 41 41 43 45 46 47 48 48 49 50 51 50 52 53 53 52 53 53 53 55 56 58 59 61 62 64 67 68 69 68 67 65 62 58 55 52 50 50 50 52
25 24 23 23 23 23 21 20 20 21 21 20 19 19 19 18 18 17 17 17 16 16 15 15 14 13 17 20 18 17 18 19 20 21 23 26 28 28 28 29 30 31 32 34 35 36 38 39 40 42 44 45 46 48 49 50 51 52 52 52 53 53 51 51 53 53 53 54 55 58 59 60 61 63 66 67 68 68 67 65 62 59 55 52 50 48 48 48
25 24 24 24 24 22 21 21 21 21 21 20 19 19 19 18 18 18 17 17 17 16 16 16 15 16 19 19 18 19 19 19 20 23 25 27 27 27 28 29 30 31 33 34 35 37 38 39 40 41 44 45 47 49 50 50 51 52 52 53 55 55 52 52 55 54 54 55 55 58 60 60 60 62 64 65 65 66 65 64 61 58 55 53 51 49 48 47
25 25 25 25 23 22 22 22 22 22 22 20 19 19 19 19 18 17 17 17 17 16 16 18 18 19 20 18 18 19 19 20 22 24 26 26 26 27 29 29 30 32 33 34 36 37 38 39 40 42 44 45 47 48 48 49 50 53 54 55 56 57 55 54 56 55 55 57 57 60 60 59 60 61 62 62 62 63 62 61 60 58 56 54 52 50 49 47
26 26 26 25 23 22 23 23 23 22 21 20 19 19 19 19 18 17 17 18 17 17 18 19 19 20 20 19 19 19 20 22 24 25 26 26 27 28 29 30 31 32 34 35 36 37 38 39 40 42 42 43 45 46 48 49 52 54 55 57 58 58 57 57 58 57 58 59 60 62 61 59 60 60 60 60 60 60 59 59 59 58 57 55 53 51 49 47
27 27 26 24 23 24 24 23 23 22 21 20 19 19 18 18 18 18 18 18 18 18 19 19 19 19 20 19 20 21 23 24 25 25 25 26 28 29 30 31 32 33 35 36 37 39 40 40 41 41 41 43 45 47 49 52 55 56 59 62 62 60 60 62 63 63 64 64 64 65 63 61 61 60 59 59 58 58 57 57 58 57 56 55 53 51 48 47
27 27 25 24 24 24 24 23 22 21 20 19 19 19 19 18 18 18 19 19 19 19 19 19 19 19 19 20 21 22 23 23 24 24 26 27 28 29 31 32 33 34 36 38 39 40 39 39 40 39 40 43 46 49 52 55 58 59 62 65 65 63 64 66 67 68 69 68 68 69 66 63 62 60 58 57 56 55 55 55 56 56 55 55 54 52 50 48
27 26 25 25 25 24 24 23 22 21 20 19 18 19 19 18 18 19 20 20 20 20 19 19 19 18 19 20 21 22 23 23 23 25 27 28 29 30 31 32 34 36 37 37 37 38 38 39 39 39 42 46 49 52 54 57 59 60 63 65 66 66 65 67 68 68 71 70 70 71 67 65 62 59 57 55 53 52 52 51 52 52 53 53 53 52 50 49
27 25 25 26 25 25 24 23 21 21 20 19 19 20 20 18 18 20 20 21 21 19 18 18 18 18 19 19 21 23 24 24 25 27 28 29 30 31 32 33 34 35 35 36 37 38 39 40 41 44 47 49 51 53 55 57 59 60 61 64 67 69 67 66 66 66 70 72 71 71 69 66 62 60 58 54 51 49 47 46 45 46 48 50 50 50 49 49
26 26 27 27 26 25 24 23 22 21 20 20 21 21 20 19 19 19 19 21 20 17 16 17 17 17 19 20 22 22 23 24 26 27 29 30 31 31 32 33 33 33 35 38 39 39 40 41 44 47 49 50 52 54 56 58 59 59 61 64 68 70 69 67 65 65 69 73 73 73 72 68 64 62 59 54 51 48 45 42 41 42 43 45 46 47 48 49
27 27 28 27 27 25 23 22 22 20 21 22 21 19 19 19 19 18 19 20 18 16 15 15 15 18 19 21 22 22 23 25 27 28 29 30 30 31 31 32 32 34 37 39 39 40 41 42 45 48 50 51 53 55 56 58 59 60 62 65 67 69 71 70 68 66 69 74 76 76 75 71 68 66 62 56 53 51 45 40 40 40 42 43 44 46 47 49
27 28 28 27 26 24 23 22 21 21 21 22 20 18 19 20 19 18 19 19 17 15 14 14 16 18 20 21 22 23 25 26 27 27 27 28 29 30 31 32 33 35 37 38 40 41 42 44 47 49 51 53 54 56 57 57 59 61 62 65 68 69 72 74 72 68 70 75 78 79 78 75 74 70 65 61 58 53 45 43 44 44 44 45 45 46 47 49
28 29 28 27 26 24 23 22 21 22 22 21 20 20 20 19 18 18 18 17 15 14 13 14 16 18 19 21 22 23 23 24 26 26 27 28 29 30 31 32 34 35 37 39 41 42 44 46 48 51 53 55 56 57 57 58 61 62 63 65 68 69 71 75 74 71 73 78 80 81 79 76 75 74 69 65 63 57 51 49 48 45 44 44 44 46 48 50
29 29 28 27 25 24 23 22 21 22 22 21 21 21 20 19 18 18 17 16 14 14 13 14 15 17 19 20 21 22 22 24 25 26 27 28 29 30 32 34 35 36 38 40 42 43 45 47 50 52 54 55 56 57 58 60 62 64 65 66 67 69 71 74 73 72 76 80 81 81 80 77 76 76 73 69 67 62 56 54 50 44 41 42 44 47 50 53
29 28 27 26 25 24 23 22 21 21 21 21 21 20 19 18 17 17 16 14 14 13 14 14 15 16 18 19 20 21 23 24 26 27 29 30 31 32 34 36 37 37 38 41 43 45 46 48 51 53 55 56 57 58 59 61 63 65 66 67 67 67 71 74 74 74 76 80 81 81 81 79 77 77 74 70 69 65 60 58 53 47 44 44 46 49 50 51
28 27 26 25 24 23 22 21 21 21 21 21 20 19 18 17 15 14 13 12 13 13 13 14 16 17 18 19 20 21 23 25 27 30 31 32 33 34 35 37 37 37 38 41 43 45 47 49 52 54 55 56 58 59 60 62 63 65 67 68 67 67 70 74 75 73 75 79 82 83 83 81 80 79 75 71 69 67 64 61 57 53 52 51 52 53 52 52
28 26 25 24 23 21 21 21 21 20 20 20 19 18 16 15 14 13 12 11 12 13 13 14 16 17 18 19 21 22 25 27 28 30 31 33 34 35 36 36 37 38 39 41 43 46 48 50 52 54 55 57 59 61 62 63 65 66 68 68 67 66 67 73 76 74 76 81 82 82 84 83 82 80 76 74 72 69 66 63 60 59 59 58 58 57 54 51
26 24 23 22 21 20 20 20 20 20 19 19 17 16 15 14 13 12 11 10 11 12 13 14 16 18 19 20 21 23 25 27 28 30 31 33 35 36 36 36 36 38 40 41 43 46 48 50 52 54 55 57 59 61 62 64 66 67 69 70 69 67 67 72 77 76 78 82 82 82 84 84 82 80 78 76 74 71 68 65 63 62 62 61 59 55 51 47
24 23 22 21 20 20 20 19 19 19 19 18 16 15 14 12 11 10 9 9 10 11 12 14 15 17 18 20 22 24 25 27 29 30 32 34 36 37 37 35 36 38 40 43 44 47 49 50 52 54 55 57 59 61 63 65 67 68 71 72 73 72 71 73 77 79 78 78 80 84 85 83 83 81 80 78 75 73 70 67 65 63 61 58 55 51 48 45
23 22 21 21 20 20 19 19 19 18 18 17 16 14 13 11 10 8 8 8 9 10 11 13 15 17 19 21 22 23 25 27 28 30 31 33 35 36 35 34 35 37 40 43 45 46 48 50 52 54 56 58 59 61 64 66 68 69 71 73 75 77 76 77 80 81 79 77 80 85 86 85 83 82 81 80 77 73 71 69 66 63 59 55 52 48 47 46
22 22 21 20 20 19 19 18 18 18 17 16 14 13 12 10 9 8 7 8 9 10 11 13 15 17 19 21 22 23 24 26 27 28 30 32 34 36 36 36 36 37 39 41 43 45 47 50 53 55 57 59 60 61 64 65 68 69 71 75 79 81 81 80 82 84 79 76 80 85 86 86 84 82 83 81 78 75 72 70 66 62 59 55 52 49 48 47
22 20 20 19 19 19 18 18 18 17 16 15 13 12 11 10 9 8 8 8 8 9 12 13 15 16 19 20 22 23 25 26 27 29 31 33 35 37 38 38 38 39 40 41 43 45 46 49 52 55 57 59 61 63 65 67 69 71 74 77 79 82 82 81 82 84 81 78 80 84 86 88 87 85 85 83 80 77 74 70 66 61 57 55 53 51 50 48
20 19 19 19 19 18 18 17 17 16 15 14 12 11 10 9 9 9 8 8 8 8 11 13 15 16 18 20 22 24 25 27 28 29 31 33 35 36 37 38 38 39 40 41 43 46 48 50 53 56 58 61 63 64 67 69 70 72 74 75 77 79 80 79 79 82 82 80 80 84 86 89 90 88 86 84 82 79 75 70 66 60 55 53 51 50 49 48
19 18 18 18 18 17 17 16 15 15 14 13 11 10 9 9 9 8 8 7 8 9 10 12 15 17 18 20 22 24 26 28 29 30 31 33 34 36 37 38 39 39 40 41 43 46 48 51 53 56 59 62 64 65 67 69 70 71 73 74 75 76 77 77 77 79 81 79 78 82 86 88 90 89 86 86 84 80 76 71 65 60 56 53 51 50 48 47
18 17 17 17 17 16 15 15 14 13 12 12 11 9 8 8 7 8 7 7 7 9 11 12 14 17 19 21 22 25 26 28 29 30 31 33 34 36 38 39 40 40 41 42 43 45 48 50 53 56 59 62 64 65 66 68 71 72 73 74 75 74 74 76 78 79 81 79 77 79 85 87 89 89 88 87 84 80 76 70 65 61 57 53 52 51 49 48
17 17 17 16 16 15 14 13 12 12 11 10 9 8 7 6 6 6 6 6 7 9 11 13 15 17 20 22 23 25 27 29 30 31 32 33 35 37 38 39 40 41 42 43 44 45 47 50 52 55 58 61 63 64 66 68 70 72 73 74 75 75 74 75 77 80 81 81 79 77 83 88 89 90 90 87 84 81 77 70 65 61 58 54 52 51 50 49
15 15 15 15 15 14 14 13 12 10 9 8 8 7 6 5 4 5 5 6 8 9 11 14 16 18 20 22 24 26 28 29 30 31 32 34 35 37 39 40 41 42 43 44 44 45 47 49 52 55 57 60 63 65 66 68 70 72 72 72 72 74 74 73 75 78 80 83 82 78 80 86 88 89 90 87 84 83 79 72 66 62 59 56 53 52 51 50
14 13 13 13 13 13 12 12 10 9 8 7 6 5 4 3 3 4 5 6 8 10 12 14 17 19 20 22 24 26 28 29 31 32 33 34 36 37 39 40 41 42 43 44 45 46 47 49 52 55 57 60 62 64 66 68 70 72 73 72 71 70 72 73 73 74 76 80 83 81 80 84 87 88 88 87 84 84 81 74 68 63 60 57 54 52 51 51
12 11 11 11 11 12 11 10 9 8 7 6 5 4 3 2 1 2 4 6 8 10 13 15 17 19 21 23 25 26 28 29 31 32 33 34 36 37 38 40 41 42 43 45 46 47 48 49 51 53 56 59 61 63 66 68 71 72 73 72 70 69 71 73 73 73 75 78 81 81 80 83 87 88 88 87 84 83 82 76 69 64 60 56 54 53 52 51
11 10 10 10 10 10 10 9 8 7 6 5 4 3 2 1 1 2 4 6 9 11 14 16 18 20 22 23 25 27 28 30 31 32 33 34 36 37 38 40 41 42 44 45 47 48 49 50 51 52 55 58 60 62 65 68 69 70 71 71 70 69 70 72 72 72 74 77 79 80 81 82 86 89 88 86 84 83 81 77 70 64 60 56 53 53 52 51
10 9 9 9 9 9 9 8 8 7 5 4 3 2 1 2 2 3 4 7 9 11 14 17 19 20 22 24 25 27 29 30 31 32 33 34 36 37 38 40 41 42 44 45 47 49 50 51 52 53 55 57 60 62 64 66 67 67 68 69 69 69 69 70 71 72 73 75 77 78 78 80 83 86 86 85 84 83 81 78 72 65 60 56 53 51 51 51
9 8 8 8 8 8 8 8 7 6 5 3 2 2 2 2 2 3 5 7 9 12 14 17 19 21 23 25 26 28 29 30 31 32 33 34 36 37 38 40 41 42 44 45 47 49 51 52 53 52 53 55 57 59 61 64 65 66 67 69 70 69 69 69 70 71 72 73 76 77 76 77 79 82 84 84 84 83 81 78 74 68 62 57 53 51 50 50
8 7 7 7 6 6 6 7 7 6 5 4 3 3 2 3 3 4 5 7 9 12 14 17 19 21 23 25 27 29 30 31 32 32 34 35 36 37 39 40 41 43 44 45 46 48 50 52 53 53 53 54 56 58 60 62 64 66 67 69 70 70 70 69 70 71 71 71 73 76 75 75 77 80 82 83 83 84 82 79 75 70 64 59 54 51 49 49
8 7 6 6 5 5 5 6 6 5 5 4 4 4 3 3 4 4 6 8 9 12 15 17 20 22 24 26 28 29 30 31 32 33 34 35 36 37 39 40 42 43 44 45 46 47 49 51 53 54 55 57 59 60 61 63 64 65 66 68 70 71 70 69 70 71 71 69 68 72 74 73 75 78 80 81 83 85 84 81 76 71 65 61 56 51 49 48
7 7 6 5 4 3 4 4 4 4 4 5 5 5 5 4 5 6 7 8 10 12 15 17 20 22 24 26 28 30 31 32 33 34 35 35 36 37 39 41 42 43 44 45 46 47 48 49 52 53 54 56 58 59 60 62 64 65 65 67 69 71 70 69 70 70 70 69 67 69 73 74 74 78 80 82 83 85 86 84 79 73 67 63 59 54 49 48
7 6 6 5 3 2 1 2 3 4 5 6 6 6 6 5 6 7 8 9 11 13 15 18 20 22 25 27 28 30 32 33 34 35 35 36 36 38 39 41 43 44 44 45 47 48 48 49 50 52 53 54 57 57 58 60 63 64 65 66 68 70 70 69 69 69 69 69 68 67 70 72 74 77 81 83 84 85 86 86 83 77 71 66 61 56 51 48
6 5 4 3 2 1 1 1 2 3 5 7 7 7 7 6 7 8 9 10 12 14 16 18 21 23 25 27 29 31 32 34 35 35 36 36 37 38 40 41 43 44 45 45 47 48 48 49 49 51 52 53 56 57 57 59 61 63 65 66 67 69 70 69 69 68 67 66 67 67 68 71 73 75 79 82 83 84 85 86 85 81 75 68 63 59 54 49
5 5 4 3 2 1 2 3 3 3 5 6 8 8 8 7 8 9 10 11 12 14 16 18 21 23 25 27 29 31 33 34 35 36 36 37 37 38 40 42 43 44 45 46 46 48 49 49 50 50 51 52 54 56 56 58 60 62 65 66 66 67 70 70 69 68 66 65 66 67 67 69 71 73 76 78 80 82 83 84 84 82 77 71 66 62 58 52
5 5 4 3 2 1 1 3 4 6 6 6 7 9 9 9 9 10 11 12 13 15 17 19 21 23 25 28 30 31 33 35 36 37 37 37 37 38 39 42 43 45 46 46 47 48 49 50 51 51 50 51 53 55 56 57 60 62 64 66 66 66 69 71 70 69 67 66 66 66 65 67 69 70 72 75 77 79 80 81 82 82 79 74 69 65 60 54
5 5 6 6 5 5 4 4 6 6 7 7 7 9 10 10 10 10 12 13 14 16 18 19 21 24 26 28 30 32 33 35 36 37 38 37 38 38 39 41 43 44 45 46 47 48 49 50 51 51 51 50 51 54 55 56 59 62 63 64 65 65 68 70 69 68 68 68 67 67 67 67 67 68 70 73 75 76 78 79 81 82 80 77 73 68 63 57
4 5 5 6 6 7 6 6 6 6 7 8 8 9 10 11 11 11 12 14 15 17 18 20 22 24 26 28 30 32 34 35 37 38 38 38 38 38 39 41 42 44 45 46 47 48 49 50 52 52 51 50 51 53 54 56 59 61 62 63 65 65 66 68 69 68 68 68 68 67 68 69 69 68 69 72 74 76 77 79 81 82 81 80 77 72 66 60
Wind_Direction
159 155 147 149 155 158 154 146 142 140 138 140 140 141 138 130 121 109 98 87 82 83 85 84 81 77 71 64 59 55 50 46 43 39 37 36 34 33 33 31 29 27 24 21 18 16 13 11 8 6 4 1 360 358 356 355 353 351 349 346 343 340 338 336 333 330 328 325 322 319 315 311 307 304 302 301 300 299 299 298 295 292 289 287 285 283 282 281
151 148 147 151 153 151 150 146 142 139 138 138 136 133 127 121 113 102 93 89 89 89 88 85 79 74 68 61 58 54 49 47 45 42 42 41 40 39 37 33 30 26 23 20 17 14 11 9 6 4 3 1 359 357 356 355 353 351 349 346 343 340 338 336 333 331 328 325 322 320 317 313 310 308 304 300 298 296 295 295 294 293 291 288 286 284 282 281
147 146 145 143 143 145 149 146 140 137 135 132 128 124 120 115 105 96 94 95 94 92 89 83 77 71 65 59 58 57 52 50 49 47 46 45 44 41 37 33 28 24 21 18 15 11 9 8 6 4 3 1 359 358 356 355 354 352 349 347 344 341 338 336 333 331 328 325 322 319 317 314 313 311 307 302 298 295 293 292 291 291 290 289 288 285 282 279
144 141 137 136 140 145 145 140 135 133 130 125 122 118 114 107 99 99 100 100 95 90 85 80 75 70 63 60 62 60 55 53 53 52 50 47 44 38 34 30 25 22 20 16 13 10 9 8 6 4 3 1 360 358 357 355 354 352 349 347 345 341 338 335 333 331 329 326 323 320 317 315 313 311 309 306 301 297 293 290 289 288 288 288 288 286 283 280
140 137 137 138 142 142 139 135 132 128 123 120 117 113 108 103 103 104 103 100 94 88 83 77 73 68 65 65 64 59 55 56 55 53 49 45 40 34 31 27 25 23 19 15 11 10 10 8 6 4 3 2 0 359 358 356 354 353 351 348 346 342 339 336 334 333 330 328 325 323 320 316 313 310 308 307 304 300 296 292 289 287 285 285 285 285 284 283
137 137 139 139 141 140 136 132 127 123 121 118 114 109 106 106 108 107 105 99 93 87 80 75 72 70 70 67 64 62 60 58 55 51 46 40 35 32 30 27 25 22 16 13 11 11 10 7 6 5 4 3 2 1 359 358 355 354 352 349 347 344 341 339 337 335 333 331 328 326 323 318 313 309 307 306 304 301 297 294 290 287 285 284 284 284 284 283
136 136 138 139 140 138 131 126 122 122 120 116 111 108 109 111 111 109 104 97 91 85 79 75 74 74 72 69 67 65 61 56 50 46 40 35 33 31 30 27 23 19 15 13 12 11 8 7 6 5 5 4 3 1 360 359 357 354 353 350 347 345 343 341 339 338 336 334 331 329 325 319 313 309 307 305 303 301 299 295 292 289 286 284 284 283 283 283
136 137 140 140 138 131 125 123 123 121 117 112 110 112 114 113 111 107 101 96 90 83 78 76 78 79 77 74 70 63 58 51 45 42 36 34 33 31 29 25 21 18 15 14 12 9 8 7 6 5 5 4 3 2 360 358 356 354 352 350 348 347 345 344 342 340 338 335 333 330 326 319 313 309 307 305 304 302 299 297 293 290 288 286 285 284 284 283
139 142 142 138 132 126 125 124 123 119 114 112 114 116 116 113 110 105 99 94 88 83 81 83 85 83 76 72 67 60 53 47 43 39 36 35 34 31 28 24 19 17 14 13 10 8 8 7 5 4 4 3 2 1 359 357 356 354 352 350 349 349 348 346 344 342 339 337 335 330 325 319 312 309 307 306 304 303 300 297 294 291 289 287 285 284 283 282
143 143 139 135 129 126 125 124 123 118 115 116 119 119 116 112 106 101 96 92 90 91 91 89 85 78 75 70 64 59 50 46 43 39 39 37 34 31 26 22 17 15 13 11 10 8 7 5 4 4 3 2 0 359 358 357 356 354 353 352 351 350 349 348 346 344 341 339 335 330 324 316 310 308 307 307 306 304 302 300 297 294 291 288 285 282 280 279
143 141 137 133 128 127 127 125 122 118 119 121 122 120 114 108 102 97 94 94 94 90 88 86 82 80 79 67 61 58 51 48 44 42 40 36 34 29 24 19 15 13 12 11 9 7 6 4 3 3 1 359 358 359 358 358 357 355 354 353 352 352 350 349 347 345 343 340 336 331 324 315 309 307 306 306 305 304 304 302 301 298 295 291 287 284 280 278
143 141 137 133 130 129 128 125 122 122 123 124 123 119 111 106 102 99 97 95 92 88 90 90 87 84 72 62 61 58 53 50 47 44 40 35 32 26 21 16 12 12 11 9 7 6 5 4 3 1 359 359 359 359 359 359 358 357 356 354 353 353 351 348 347 346 344 340 336 333 326 316 310 307 304 303 303 303 303 302 302 301 299 295 291 287 283 280
144 142 138 134 132 131 128 125 125 126 126 126 123 116 111 108 104 99 95 93 95 96 95 90 87 79 67 64 64 60 55 51 46 42 37 33 28 22 18 14 12 10 8 7 6 6 5 3 2 360 359 360 359 0 2 1 359 358 356 354 352 352 352 349 348 347 345 341 335 332 325 316 312 308 304 303 302 302 302 302 303 302 301 298 295 291 286 282
146 142 138 136 134 131 129 127 128 128 128 126 122 115 111 108 103 99 97 98 102 99 92 86 82 75 70 69 67 62 56 50 44 39 34 30 25 19 15 13 11 9 7 6 6 5 4 3 1 0 0 360 1 3 3 360 357 356 355 354 354 354 355 352 350 349 347 343 336 331 326 319 315 311 306 305 303 303 303 303 303 303 301 299 296 293 289 284
147 143 140 137 134 132 130 130 131 131 129 125 120 114 109 107 104 103 104 105 103 96 89 84 78 75 75 72 68 63 55 47 40 36 32 26 21 17 14 12 9 8 7 6 4 4 4 2 2 2 1 1 3 3 0 358 356 355 355 357 358 357 357 355 353 350 348 345 338 333 328 322 319 314 311 309 307 305 304 303 303 301 300 298 296 293 290 286
148 145 141 137 134 133 133 134 134 132 129 125 120 113 109 108 106 108 112 109 102 93 87 84 80 77 74 69 63 57 48 42 36 32 28 22 19 16 13 10 8 7 6 3 3 3 3 3 2 1 1 2 1 358 356 355 355 355 357 359 1 0 359 358 355 351 350 348 342 335 331 327 324 319 316 313 311 308 306 303 301 300 298 297 295 294 291 288
150 145 141 136 135 135 136 136 135 132 128 125 120 114 112 112 111 115 116 108 99 92 88 83 79 74 69 62 56 50 44 38 33 28 24 20 17 15 12 9 7 5 2 2 3 3 2 1 359 359 360 359 355 353 353 353 354 357 358 360 2 3 1 359 357 354 352 350 345 339 335 332 328 324 320 317 313 310 306 304 301 300 298 297 296 294 292 289
151 145 140 137 137 138 138 137 134 131 128 125 121 117 117 116 118 121 114 105 97 92 87 81 76 70 63 55 49 46 41 36 30 25 22 19 17 15 12 9 7 4 3 4 4 2 359 356 356 357 355 351 350 351 353 355 358 359 359 1 3 5 2 359 357 355 354 352 347 343 339 336 332 327 323 319 316 313 309 306 303 301 299 297 296 295 294 292
150 144 140 139 140 139 138 136 133 130 128 125 124 124 121 121 125 121 112 105 97 89 83 77 71 63 56 51 45 41 37 32 27 24 21 18 17 15 13 10 7 6 5 4 1 357 355 354 354 351 347 348 351 354 356 358 360 0 2 3 3 4 3 0 358 355 355 353 349 346 342 339 336 331 328 325 321 318 313 309 305 301 299 297 295 294 294 293
150 145 142 141 141 140 138 135 132 130 129 126 128 127 124 126 127 119 111 104 96 87 78 71 65 58 53 48 41 36 31 28 25 22 20 17 16 14 13 11 9 7 4 0 357 355 354 353 350 347 347 351 353 356 357 358 360 1 4 4 1 2 3 2 360 356 355 354 350 347 345 343 339 335 334 333 329 325 320 314 309 304 301 298 297 295 295 294
149 145 142 142 141 140 139 135 133 131 129 129 130 128 126 131 128 119 110 102 95 86 77 69 62 56 50 45 39 34 29 26 24 22 20 17 15 13 12 11 8 4 1 359 357 356 355 352 348 349 350 352 354 356 357 357 0 3 3 2 0 0 2 3 1 357 356 355 352 348 348 347 342 339 341 339 336 332 327 321 315 310 306 303 300 298 297 295
148 144 143 142 141 141 139 136 134 134 134 132 128 127 131 132 127 118 108 100 94 87 78 69 60 53 47 42 36 30 26 23 23 22 20 16 13 11 10 8 5 3 1 360 358 356 354 351 351 352 352 353 354 356 358 360 1 2 1 0 0 0 2 3 3 360 356 355 354 351 350 350 347 345 346 344 342 339 334 328 322 317 312 307 303 299 297 295
147 145 144 143 143 142 138 136 136 137 137 131 128 133 137 132 124 114 104 99 96 87 78 67 58 51 45 39 33 28 24 22 22 21 18 15 11 8 6 5 4 3 2 359 357 356 354 353 354 354 353 354 355 357 360 1 360 360 360 0 2 2 2 4 5 3 358 357 357 355 352 352 351 350 349 348 348 345 339 334 328 322 316 310 306 302 299 297
147 146 145 145 144 141 138 137 138 139 137 132 134 139 136 128 119 110 104 101 96 88 78 66 56 49 42 37 32 28 23 20 19 17 16 14 9 5 3 2 3 3 1 359 358 357 356 356 355 355 355 355 356 357 358 359 358 359 1 3 3 4 5 5 5 3 0 359 360 359 356 353 352 353 353 351 350 349 343 338 331 323 317 313 309 306 304 302
148 148 147 147 143 140 139 139 141 141 139 137 138 136 130 123 116 110 106 102 95 86 74 63 56 49 40 34 30 26 20 19 17 14 14 11 8 4 1 0 2 2 360 359 359 359 357 357 356 356 356 355 356 356 356 357 359 360 2 5 6 5 6 7 5 2 1 1 0 359 358 356 354 354 354 352 351 349 344 339 334 328 321 316 312 309 305 302
149 149 149 146 143 141 141 142 144 143 141 141 138 133 127 122 116 111 107 103 92 81 71 61 54 47 38 32 29 23 19 17 14 12 12 9 7 5 1 0 0 360 359 359 359 359 358 357 356 356 356 356 355 356 356 358 0 2 3 5 7 7 6 7 7 3 0 1 0 358 358 358 356 355 354 351 349 347 343 341 338 333 326 320 317 315 311 308
149 150 148 145 143 143 145 146 146 144 143 142 138 133 128 122 117 112 107 101 89 76 66 57 49 42 34 29 26 21 19 16 13 12 10 8 7 5 3 2 359 358 359 359 359 359 358 357 357 356 356 356 356 356 358 359 1 3 4 5 7 8 7 7 7 4 1 1 1 359 359 359 357 356 355 351 348 346 344 343 340 336 333 330 328 327 323 320
150 149 147 145 145 146 148 150 150 147 144 142 139 134 128 123 119 112 104 95 81 69 59 50 42 35 31 26 23 20 18 15 13 11 9 7 7 6 6 2 357 356 357 358 358 358 358 358 357 357 357 357 357 358 359 0 2 3 4 5 7 8 8 7 6 5 2 2 2 359 359 360 358 356 355 352 349 348 346 344 342 341 339 337 334 331 327 324
149 148 146 146 147 148 151 151 151 151 148 145 141 135 129 125 119 111 102 89 74 63 54 45 37 31 28 24 20 18 16 14 12 10 8 7 7 7 6 2 358 356 356 357 358 357 358 358 358 357 358 358 358 359 360 1 3 3 4 4 6 6 7 7 8 7 5 4 3 0 359 359 358 356 354 353 351 349 347 345 345 344 342 338 335 332 329 327
147 146 146 146 147 150 151 150 150 151 151 148 144 137 132 127 119 111 101 84 68 58 49 40 34 30 26 22 18 15 13 11 10 8 7 6 6 6 5 2 359 356 355 356 357 358 358 358 358 358 359 360 360 359 0 2 3 3 3 3 3 4 5 8 10 9 9 7 3 1 0 359 359 357 354 353 352 349 347 348 348 346 342 338 336 334 333 332
146 145 145 146 149 151 151 152 151 151 151 148 144 138 133 126 117 107 93 75 59 51 43 35 31 27 23 19 15 12 10 8 7 6 4 4 4 4 2 360 359 358 356 356 356 358 358 358 359 359 359 0 1 1 2 2 2 2 2 2 1 2 4 8 12 13 12 8 4 2 1 1 359 357 355 354 353 350 349 350 349 346 342 339 338 337 335 333
145 145 145 147 149 150 151 153 153 152 151 148 143 137 130 121 110 95 79 67 53 45 38 29 26 23 19 15 11 9 7 5 4 4 4 4 4 2 360 359 359 358 358 357 356 358 359 359 359 359 359 360 0 1 2 2 2 2 2 2 2 4 5 7 12 16 15 9 5 3 2 1 360 358 357 356 353 352 352 351 349 346 342 340 340 339 337 334
145 145 146 147 148 149 150 150 151 151 150 147 142 135 125 115 102 88 74 63 52 41 33 27 23 18 14 10 7 5 4 1 2 3 4 5 3 1 359 359 359 358 358 357 356 357 359 359 359 358 359 359 0 1 2 3 3 3 4 5 5 5 7 8 10 14 16 12 6 4 3 2 1 1 359 356 354 354 354 351 349 346 343 341 340 339 338 337
145 145 146 147 147 148 148 148 148 148 146 143 139 132 123 111 96 84 73 60 48 36 27 23 20 14 8 5 3 2 1 359 0 2 3 3 1 360 358 358 358 358 357 357 356 356 357 359 359 359 359 359 0 2 2 3 4 5 5 7 8 7 7 8 8 10 13 13 8 5 4 2 2 2 360 357 357 356 354 352 349 347 345 343 342 341 340 339
145 146 146 147 147 148 148 148 147 146 144 141 136 129 119 107 92 81 70 57 43 31 22 16 13 9 4 1 360 359 358 357 358 360 1 1 360 359 358 358 357 357 356 356 357 356 356 357 358 358 359 359 360 2 3 3 4 6 6 7 8 9 8 8 8 8 11 13 9 6 5 5 4 3 1 360 359 357 355 353 349 347 348 347 345 343 342 341
146 146 146 147 148 148 148 148 147 146 144 140 135 127 117 104 91 78 64 50 36 25 18 11 6 3 360 358 357 356 355 355 356 357 359 359 359 358 358 358 356 355 355 355 356 356 356 356 357 358 359 359 360 1 3 4 4 5 6 6 7 9 9 9 8 9 10 13 11 6 4 5 5 4 3 2 360 358 356 354 351 349 349 349 347 346 345 344
148 148 148 149 151 151 152 151 149 147 145 140 134 126 119 106 91 77 57 39 27 17 12 6 1 357 356 355 354 353 353 353 353 355 356 357 358 358 358 357 356 354 354 354 354 355 355 355 356 357 358 359 359 0 2 4 4 4 6 7 7 7 8 8 8 9 10 13 14 9 3 3 4 3 4 3 1 359 357 356 354 351 350 351 350 349 348 347
149 150 151 153 155 156 156 153 150 147 143 139 135 128 122 113 91 71 47 25 15 8 3 360 358 354 353 353 352 351 351 350 351 352 354 355 357 358 358 357 356 354 353 353 353 354 355 354 355 356 358 359 359 360 2 3 4 4 6 8 7 7 8 8 7 7 9 11 14 12 6 3 3 3 3 4 1 359 359 358 356 354 352 353 353 352 351 351
151 153 156 159 161 162 160 157 153 147 142 139 139 136 133 128 96 61 35 14 4 360 357 353 353 352 350 350 350 349 349 348 349 350 352 354 355 357 357 357 356 355 353 352 351 352 354 354 355 356 358 359 359 360 1 3 3 4 5 8 9 8 7 8 8 7 8 9 12 12 8 4 4 3 4 4 2 359 359 359 357 356 354 353 354 355 354 353
153 157 163 166 167 167 166 163 159 152 145 142 145 150 161 165 95 32 12 0 353 352 351 349 348 349 349 349 348 348 347 347 347 348 350 352 353 355 356 356 357 356 354 352 351 351 353 354 355 356 357 358 359 360 1 2 4 4 5 6 8 8 7 8 9 7 7 7 8 9 7 5 4 4 4 4 3 0 359 359 358 357 356 355 355 356 356 355
155 160 165 167 167 169 170 167 162 154 147 146 152 163 189 225 318 347 345 345 344 346 347 346 347 348 347 347 347 347 347 346 346 347 348 350 352 353 355 355 356 356 355 353 352 351 352 353 354 356 357 358 359 0 1 3 4 4 4 5 7 8 8 9 11 10 8 7 6 7 6 4 3 3 4 4 3 1 0 0 360 359 358 357 356 356 357 357
156 161 165 165 165 168 171 173 171 167 162 162 170 187 233 272 305 329 333 336 339 342 344 345 346 347 346 346 347 347 347 346 345 345 347 349 350 352 353 354 355 355 355 354 353 352 351 352 355 356 357 358 359 1 1 2 3 3 3 4 6 8 8 9 10 12 11 8 9 9 7 4 3 3 4 5 4 2 1 1 1 1 359 359 359 358 359 359
156 161 164 165 166 168 173 178 182 185 185 189 212 238 276 302 310 322 326 330 337 341 344 345 346 346 345 346 347 347 346 345 344 344 346 348 349 351 352 353 353 354 354 354 353 352 351 352 354 355 356 358 359 0 2 2 2 3 3 4 6 8 8 9 9 11 12 9 8 10 10 6 4 4 6 6 5 4 3 2 2 3 2 1 0 0 1 0
155 157 159 160 164 172 177 181 186 194 197 201 225 258 285 309 316 322 325 328 335 340 344 345 345 345 345 346 347 346 345 344 344 344 345 347 349 350 350 351 352 353 353 354 353 353 352 352 352 353 355 357 359 0 2 2 2 3 3 4 6 7 8 8 8 10 13 12 7 8 10 8 5 6 7 7 6 6 5 4 3 3 3 3 2 2 2 1
150 149 149 152 160 175 188 190 192 200 209 212 230 261 283 303 314 320 325 329 335 339 342 344 344 344 344 345 346 346 344 343 343 344 345 346 347 348 349 350 351 352 353 353 353 353 353 352 352 353 354 356 359 0 1 2 2 3 3 4 5 7 8 8 8 8 11 12 9 6 9 10 7 8 9 9 8 7 7 6 5 4 4 4 4 4 2 0
147 142 139 141 151 174 200 212 214 217 228 234 243 262 277 295 309 314 322 329 333 336 338 340 341 341 342 344 345 345 343 343 343 343 344 345 346 347 348 349 350 351 352 352 352 353 354 354 353 353 354 355 358 360 360 1 2 2 3 4 5 6 8 7 8 8 8 10 10 7 7 9 8 8 10 10 9 8 7 7 7 6 5 5 6 5 3 1
148 142 134 131 132 137 177 237 245 236 241 250 256 264 274 286 300 309 318 325 330 333 334 336 338 339 340 342 344 343 343 343 343 343 342 343 344 345 347 348 349 350 350 351 352 352 353 355 354 354 354 355 357 359 359 0 2 2 3 5 5 5 7 7 7 8 7 8 10 10 7 8 8 8 9 10 9 8 7 7 7 7 7 7 7 7 5 3
159 154 147 143 140 112 55 339 295 266 258 259 261 265 271 281 294 303 312 321 326 329 331 333 335 337 338 341 343 343 342 342 342 342 342 342 343 344 345 346 348 349 349 350 351 351 352 354 355 354 354 355 356 358 359 360 1 2 3 5 5 4 5 7 7 7 7 5 7 10 9 8 8 8 9 9 8 8 8 7 7 7 7 7 8 8 8 6
177 178 171 166 163 120 43 10 351 331 297 274 265 267 272 278 289 299 308 316 321 324 327 330 333 335 337 339 341 341 341 342 341 341 341 341 341 342 343 345 346 348 348 349 349 349 350 352 355 355 354 355 355 357 359 360 0 2 4 5 5 4 4 6 6 6 6 6 6 8 9 8 8 8 8 10 9 8 8 7 7 8 8 8 8 9 9 8
195 199 197 201 209 208 360 354 351 349 331 299 277 271 272 277 285 295 304 310 315 320 323 327 330 332 334 336 338 339 340 340 341 341 341 341 341 341 342 344 346 346 347 348 348 348 349 350 353 355 355 355 355 356 358 359 359 2 4 4 5 5 4 5 6 5 5 6 6 7 9 10 10 9 8 10 11 10 9 8 8 9 9 9 9 9 10 10
209 216 220 230 242 253 277 307 325 337 339 324 300 281 275 277 283 291 300 305 310 315 320 323 327 329 331 333 335 336 338 338 339 340 340 341 341 341 342 343 345 345 346 347 347 347 348 349 352 354 355 355 355 355 357 358 359 1 4 4 4 5 4 3 4 4 4 5 5 6 7 9 11 10 8 9 11 11 10 9 9 9 10 10 10 10 11 11
227 233 235 241 250 259 269 284 301 320 333 334 319 295 281 279 282 289 295 301 306 311 316 320 324 326 329 331 332 334 335 337 338 339 340 340 340 340 341 343 344 344 345 345 346 347 348 349 350 352 354 354 355 355 356 356 358 1 2 3 4 5 5 3 3 4 4 4 5 5 6 7 10 11 9 9 10 11 10 10 10 10 10 10 10 11 11 11
Height
5814 5815 5817 5819 5822 5824 5827 5828 5829 5831 5832 5834 5835 5836 5838 5839 5839 5840 5840 5841 5841 5841 5841 5841 5841 5841 5840 5840 5840 5840 5839 5839 5838 5838 5837 5836 5835 5834 5833 5832 5831 5829 5828 5826 5824 5822 5820 5818 5816 5814 5811 5809 5806 5804 5801 5798 5795 5792 5789 5786 5783 5779 5776 5773 5769 5766 5762 5759 5755 5751 5748 5744 5740 5737 5734 5730 5726 5722 5719 5716 5713 5710 5707 5705 5702 5701 5699 5698
5814 5815 5817 5819 5821 5824 5827 5829 5830 5832 5833 5834 5835 5837 5838 5839 5840 5840 5840 5841 5841 5841 5841 5841 5841 5841 5841 5841 5840 5840 5839 5839 5838 5837 5836 5836 5835 5834 5833 5832 5830 5829 5827 5825 5823 5821 5819 5817 5815 5812 5810 5807 5804 5801 5799 5796 5793 5789 5787 5783 5780 5776 5773 5769 5766 5762 5758 5754 5750 5746 5742 5738 5734 5731 5727 5724 5721 5716 5713 5709 5705 5702 5700 5697 5695 5693 5691 5690
5813 5815 5817 5819 5822 5825 5827 5829 5831 5832 5833 5835 5836 5837 5839 5839 5840 5840 5841 5841 5841 5841 5841 5841 5841 5841 5841 5841 5841 5840 5840 5839 5838 5837 5837 5836 5835 5834 5833 5831 5829 5828 5826 5824 5822 5820 5818 5816 5813 5811 5808 5805 5803 5800 5797 5794 5791 5788 5784 5781 5777 5774 5770 5766 5763 5759 5755 5750 5746 5742 5737 5733 5729 5725 5721 5717 5714 5710 5707 5703 5699 5696 5692 5689 5687 5685 5683 5681
5813 5815 5817 5820 5824 5826 5828 5830 5831 5832 5834 5835 5836 5838 5839 5840 5840 5840 5841 5841 5841 5842 5842 5842 5842 5842 5842 5842 5841 5840 5840 5839 5838 5838 5837 5836 5835 5833 5831 5830 5828 5826 5825 5823 5822 5820 5817 5814 5812 5809 5807 5804 5801 5798 5795 5792 5789 5785 5782 5778 5774 5770 5766 5763 5759 5755 5751 5747 5742 5738 5733 5728 5724 5719 5715 5711 5706 5702 5700 5696 5692 5689 5685 5682 5679 5676 5674 5672
5813 5815 5818 5821 5825 5827 5829 5830 5831 5833 5834 5836 5837 5838 5839 5840 5840 5841 5841 5842 5842 5842 5843 5843 5843 5842 5842 5842 5841 5840 5840 5839 5839 5838 5837 5835 5834 5832 5831 5829 5828 5826 5825 5824 5822 5819 5816 5814 5811 5809 5806 5803 5800 5797 5794 5790 5786 5783 5779 5775 5771 5767 5763 5759 5755 5751 5747 5742 5738 5733 5729 5724 5719 5714 5708 5704 5699 5694 5691 5687 5684 5681 5678 5674 5670 5667 5664 5662
5815 5817 5820 5822 5825 5828 5829 5830 5831 5833 5835 5836 5838 5839 5839 5840 5840 5841 5842 5842 5842 5843 5843 5843 5843 5842 5842 5841 5840 5840 5840 5839 5839 5837 5836 5835 5833 5832 5831 5829 5828 5827 5825 5823 5820 5817 5815 5813 5810 5807 5804 5801 5798 5795 5791 5788 5784 5780 5776 5772 5768 5763 5759 5755 5751 5747 5742 5738 5733 5728 5723 5718 5712 5707 5702 5696 5691 5686 5682 5678 5675 5672 5668 5665 5661 5658 5655 5653
5816 5818 5821 5823 5826 5828 5829 5830 5832 5834 5835 5837 5838 5839 5840 5840 5841 5842 5842 5842 5843 5843 5843 5843 5843 5842 5842 5841 5841 5841 5840 5839 5838 5837 5836 5835 5833 5832 5831 5829 5828 5827 5824 5821 5819 5816 5814 5812 5808 5806 5803 5800 5796 5793 5789 5786 5782 5778 5774 5769 5765 5760 5756 5752 5747 5743 5738 5733 5728 5723 5718 5712 5705 5699 5694 5689 5683 5678 5674 5670 5666 5662 5659 5656 5653 5649 5646 5644
5817 5819 5822 5825 5827 5828 5829 5831 5833 5834 5836 5837 5838 5839 5840 5841 5842 5842 5843 5843 5843 5843 5843 5843 5843 5843 5842 5842 5842 5841 5840 5839 5838 5837 5836 5835 5834 5833 5831 5829 5828 5825 5823 5820 5818 5816 5813 5810 5807 5804 5801 5798 5794 5791 5787 5784 5780 5776 5771 5767 5762 5757 5753 5748 5743 5738 5734 5729 5723 5717 5711 5705 5698 5692 5686 5680 5675 5671 5666 5662 5658 5654 5650 5647 5644 5641 5638 5635
5818 5821 5823 5825 5827 5828 5830 5832 5833 5835 5836 5838 5839 5840 5841 5842 5842 5843 5843 5843 5843 5843 5843 5843 5843 5843 5842 5842 5842 5841 5840 5839 5838 5837 5836 5835 5834 5832 5831 5829 5827 5824 5822 5820 5817 5815 5812 5808 5806 5803 5799 5796 5793 5789 5785 5782 5777 5773 5769 5764 5759 5754 5748 5744 5739 5734 5728 5723 5717 5711 5704 5698 5690 5683 5678 5673 5668 5663 5659 5654 5650 5646 5643 5639 5635 5632 5629 5626
5820 5823 5824 5826 5827 5829 5831 5832 5834 5836 5837 5838 5839 5841 5842 5842 5843 5843 5843 5843 5843 5843 5843 5843 5843 5842 5842 5843 5841 5840 5840 5839 5838 5838 5837 5835 5834 5832 5830 5828 5826 5823 5821 5819 5816 5813 5810 5807 5804 5801 5798 5794 5791 5788 5784 5780 5775 5770 5765 5760 5755 5750 5744 5739 5734 5728 5722 5717 5711 5704 5697 5690 5683 5675 5669 5664 5660 5655 5650 5646 5642 5638 5634 5630 5627 5623 5620 5616
5821 5823 5825 5826 5827 5829 5831 5833 5835 5836 5837 5839 5840 5841 5842 5843 5843 5843 5843 5843 5843 5843 5843 5843 5843 5843 5844 5843 5841 5841 5840 5840 5839 5838 5837 5835 5833 5831 5829 5827 5825 5823 5820 5817 5815 5812 5809 5806 5802 5799 5796 5793 5790 5786 5782 5777 5773 5767 5762 5757 5753 5746 5740 5734 5729 5724 5718 5712 5706 5699 5692 5683 5677 5670 5662 5656 5650 5645 5640 5635 5631 5627 5624 5620 5617 5613 5610 5607
5822 5824 5825 5827 5828 5830 5832 5834 5836 5837 5838 5840 5841 5842 5843 5843 5843 5844 5843 5843 5843 5843 5844 5844 5844 5844 5844 5842 5841 5841 5841 5840 5839 5838 5837 5835 5832 5830 5828 5826 5824 5821 5819 5816 5814 5811 5808 5804 5801 5798 5795 5791 5787 5784 5779 5774 5769 5764 5759 5754 5750 5745 5739 5733 5728 5723 5717 5710 5702 5695 5687 5677 5669 5663 5655 5648 5642 5636 5630 5624 5620 5616 5612 5609 5606 5603 5600 5597
5823 5824 5826 5827 5829 5831 5833 5835 5836 5838 5839 5841 5842 5843 5843 5843 5844 5844 5844 5844 5844 5844 5845 5845 5845 5844 5843 5841 5842 5842 5841 5840 5839 5838 5836 5833 5831 5829 5828 5826 5823 5820 5818 5815 5812 5809 5806 5803 5800 5797 5793 5789 5785 5781 5775 5770 5765 5762 5757 5753 5750 5746 5739 5732 5725 5719 5713 5706 5698 5689 5680 5671 5664 5656 5647 5640 5633 5626 5620 5615 5610 5606 5602 5599 5595 5593 5590 5587
5823 5825 5826 5828 5830 5832 5834 5835 5837 5839 5840 5842 5843 5843 5843 5843 5843 5844 5844 5844 5845 5845 5845 5845 5845 5844 5842 5843 5843 5842 5841 5840 5839 5837 5835 5833 5831 5829 5827 5825 5822 5819 5817 5814 5811 5808 5805 5802 5798 5795 5790 5787 5782 5777 5772 5769 5765 5762 5758 5754 5749 5742 5736 5729 5721 5715 5708 5700 5692 5683 5674 5665 5657 5649 5640 5633 5625 5618 5612 5606 5601 5597 5593 5589 5586 5583 5580 5577
5824 5825 5827 5829 5831 5833 5834 5836 5838 5839 5841 5842 5843 5843 5843 5843 5844 5844 5845 5845 5846 5846 5846 5845 5845 5844 5843 5844 5844 5842 5842 5840 5838 5836 5834 5833 5831 5829 5826 5824 5821 5819 5816 5813 5810 5807 5804 5801 5797 5792 5788 5784 5779 5775 5773 5770 5766 5761 5757 5752 5745 5738 5731 5724 5716 5709 5702 5695 5686 5676 5668 5659 5650 5641 5632 5625 5618 5610 5604 5598 5593 5589 5585 5581 5577 5574 5571 5568
5824 5826 5828 5829 5831 5833 5835 5837 5838 5840 5841 5842 5843 5843 5844 5844 5844 5845 5846 5846 5846 5846 5846 5845 5845 5845 5844 5845 5844 5842 5841 5839 5837 5836 5834 5832 5830 5828 5826 5823 5820 5817 5814 5812 5809 5806 5802 5798 5794 5791 5787 5783 5779 5776 5774 5770 5765 5759 5752 5745 5740 5733 5726 5718 5710 5703 5696 5689 5680 5668 5660 5652 5643 5633 5624 5616 5610 5603 5597 5591 5586 5582 5577 5573 5569 5566 5563 5560
5825 5827 5828 5830 5832 5834 5836 5838 5839 5840 5842 5843 5844 5844 5844 5845 5845 5846 5846 5847 5846 5846 5846 5846 5846 5845 5845 5844 5843 5841 5840 5838 5837 5835 5834 5832 5829 5827 5824 5821 5818 5816 5813 5810 5806 5802 5798 5796 5793 5790 5786 5782 5779 5776 5772 5767 5761 5753 5745 5737 5731 5724 5716 5710 5703 5695 5687 5679 5670 5660 5651 5644 5634 5625 5617 5610 5603 5596 5590 5585 5579 5575 5569 5565 5561 5558 5555 5551
5826 5827 5829 5831 5832 5834 5836 5838 5840 5841 5842 5843 5844 5844 5845 5845 5846 5847 5847 5847 5847 5847 5847 5846 5846 5845 5845 5843 5842 5841 5840 5839 5837 5835 5833 5831 5828 5826 5823 5820 5817 5814 5811 5807 5803 5800 5798 5795 5792 5789 5786 5783 5779 5773 5767 5759 5751 5744 5737 5729 5722 5716 5708 5701 5694 5687 5680 5671 5662 5653 5644 5636 5627 5619 5611 5603 5597 5590 5584 5578 5573 5568 5563 5558 5553 5549 5546 5543
5826 5828 5829 5831 5833 5835 5837 5839 5841 5842 5843 5843 5844 5845 5846 5846 5847 5847 5847 5847 5847 5847 5847 5847 5846 5845 5844 5843 5842 5841 5839 5838 5837 5834 5832 5830 5827 5825 5822 5820 5816 5812 5809 5806 5804 5802 5799 5795 5792 5789 5785 5779 5773 5766 5759 5753 5746 5740 5732 5724 5717 5713 5707 5699 5690 5682 5675 5667 5658 5647 5639 5631 5622 5613 5605 5598 5590 5584 5578 5572 5567 5561 5556 5551 5546 5542 5537 5534
5827 5828 5829 5831 5833 5836 5838 5840 5841 5842 5843 5844 5845 5845 5846 5847 5847 5847 5847 5847 5847 5847 5847 5846 5846 5845 5844 5843 5842 5840 5838 5837 5835 5832 5830 5828 5826 5823 5821 5818 5815 5812 5810 5808 5805 5801 5797 5793 5789 5785 5780 5774 5768 5762 5756 5750 5745 5737 5730 5723 5716 5710 5705 5698 5691 5682 5672 5662 5653 5643 5635 5627 5617 5608 5600 5592 5585 5578 5571 5565 5560 5555 5549 5544 5539 5534 5529 5525
5827 5828 5830 5832 5834 5837 5839 5840 5842 5843 5844 5844 5845 5846 5846 5847 5848 5848 5848 5847 5846 5847 5847 5847 5846 5845 5844 5843 5841 5839 5838 5836 5834 5832 5830 5827 5824 5822 5820 5817 5815 5813 5810 5807 5803 5799 5795 5791 5787 5782 5776 5771 5765 5760 5754 5748 5741 5735 5729 5723 5716 5709 5703 5694 5686 5677 5667 5656 5646 5637 5630 5622 5611 5602 5594 5586 5578 5571 5564 5558 5553 5548 5543 5538 5532 5527 5522 5518
5828 5829 5831 5833 5835 5838 5839 5841 5842 5843 5844 5845 5845 5846 5847 5848 5848 5848 5848 5846 5847 5848 5848 5847 5847 5845 5843 5842 5840 5839 5837 5835 5832 5830 5828 5826 5824 5822 5820 5818 5816 5812 5809 5805 5801 5798 5794 5790 5785 5779 5774 5769 5763 5758 5751 5745 5738 5733 5727 5721 5714 5707 5701 5693 5682 5670 5659 5650 5642 5633 5625 5617 5605 5594 5586 5578 5571 5563 5557 5551 5547 5542 5536 5531 5526 5521 5517 5512
5828 5830 5832 5834 5836 5839 5840 5841 5843 5844 5845 5845 5846 5847 5848 5848 5848 5848 5847 5847 5848 5848 5848 5847 5846 5844 5843 5841 5840 5838 5835 5834 5832 5830 5829 5826 5824 5821 5819 5817 5814 5811 5807 5804 5801 5797 5792 5787 5782 5776 5771 5766 5760 5754 5748 5743 5738 5732 5726 5719 5710 5701 5692 5683 5675 5667 5657 5648 5641 5630 5618 5608 5598 5589 5580 5571 5564 5556 5550 5545 5540 5535 5530 5525 5520 5515 5511 5507
5829 5831 5833 5835 5837 5839 5841 5842 5843 5845 5845 5846 5847 5848 5849 5849 5848 5848 5848 5848 5848 5848 5848 5847 5846 5844 5843 5841 5839 5838 5836 5834 5832 5831 5829 5826 5824 5821 5818 5816 5813 5810 5806 5803 5799 5794 5789 5784 5779 5773 5768 5762 5757 5752 5747 5742 5736 5729 5722 5714 5705 5697 5687 5676 5668 5663 5656 5647 5638 5629 5618 5607 5594 5583 5574 5564 5557 5550 5544 5539 5534 5529 5524 5518 5514 5509 5504 5500
5830 5832 5834 5836 5838 5840 5841 5843 5844 5845 5846 5846 5847 5848 5849 5849 5849 5848 5848 5849 5849 5849 5848 5847 5845 5844 5843 5841 5839 5838 5837 5834 5832 5830 5828 5826 5823 5820 5817 5814 5810 5807 5804 5800 5796 5791 5786 5781 5776 5771 5765 5760 5755 5750 5745 5739 5732 5725 5718 5711 5702 5692 5684 5676 5666 5657 5651 5643 5634 5627 5618 5603 5586 5573 5565 5557 5550 5544 5539 5534 5529 5524 5519 5514 5509 5504 5499 5493
5831 5833 5835 5837 5839 5840 5842 5844 5845 5846 5847 5847 5848 5849 5849 5849 5849 5849 5849 5849 5849 5848 5848 5847 5846 5844 5843 5842 5840 5838 5836 5834 5832 5829 5826 5824 5821 5818 5815 5811 5808 5805 5802 5798 5793 5789 5784 5779 5774 5768 5763 5758 5753 5749 5743 5737 5730 5722 5714 5707 5700 5691 5682 5673 5665 5655 5647 5640 5633 5621 5606 5591 5579 5569 5560 5552 5545 5540 5535 5529 5523 5519 5515 5510 5504 5498 5492 5486
5833 5835 5837 5838 5840 5841 5843 5844 5846 5846 5847 5848 5848 5849 5849 5849 5850 5850 5850 5850 5849 5848 5847 5847 5845 5844 5843 5842 5840 5838 5836 5833 5830 5827 5825 5823 5820 5817 5813 5809 5806 5803 5800 5796 5791 5786 5782 5777 5772 5766 5761 5756 5751 5746 5740 5733 5727 5720 5712 5704 5697 5691 5682 5672 5665 5657 5647 5639 5627 5611 5596 5585 5576 5566 5557 5550 5543 5537 5530 5523 5518 5512 5507 5502 5496 5490 5484 5478
5834 5836 5838 5839 5841 5842 5844 5845 5846 5847 5848 5848 5849 5849 5850 5850 5850 5850 5850 5850 5849 5848 5847 5846 5845 5844 5843 5841 5839 5837 5835 5832 5830 5827 5824 5821 5818 5815 5811 5808 5804 5801 5797 5794 5789 5785 5780 5775 5770 5765 5760 5754 5748 5742 5736 5730 5723 5717 5711 5704 5696 5690 5683 5675 5666 5656 5644 5632 5616 5600 5589 5582 5573 5563 5555 5548 5541 5533 5525 5518 5513 5506 5499 5493 5488 5483 5477 5472
5835 5837 5839 5840 5842 5843 5845 5846 5847 5847 5848 5849 5849 5850 5850 5850 5850 5850 5850 5850 5849 5848 5847 5846 5845 5844 5842 5840 5838 5836 5834 5831 5829 5826 5823 5820 5817 5814 5810 5807 5803 5799 5795 5792 5788 5783 5778 5773 5769 5764 5758 5752 5745 5738 5733 5727 5720 5714 5708 5701 5696 5690 5684 5676 5666 5654 5641 5623 5607 5595 5587 5579 5570 5561 5552 5545 5537 5529 5521 5514 5507 5500 5493 5487 5482 5476 5471 5466
5837 5838 5840 5841 5843 5844 5845 5846 5847 5848 5849 5849 5850 5850 5850 5850 5850 5850 5850 5850 5849 5848 5847 5846 5845 5843 5842 5840 5837 5835 5833 5831 5828 5825 5822 5819 5815 5812 5809 5806 5802 5797 5792 5788 5785 5781 5776 5772 5767 5762 5756 5750 5744 5737 5730 5723 5717 5711 5704 5698 5693 5687 5681 5672 5660 5647 5632 5615 5603 5596 5588 5578 5568 5558 5551 5543 5533 5524 5517 5510 5502 5496 5490 5484 5478 5472 5465 5460
5838 5839 5841 5842 5844 5845 5846 5847 5848 5848 5849 5850 5850 5850 5850 5851 5851 5851 5850 5849 5849 5848 5847 5846 5845 5843 5841 5839 5837 5834 5832 5830 5827 5824 5821 5818 5814 5811 5809 5806 5802 5797 5792 5786 5783 5779 5774 5770 5765 5759 5754 5748 5743 5736 5728 5721 5714 5708 5703 5698 5692 5684 5674 5665 5654 5638 5620 5610 5603 5596 5586 5575 5566 5558 5550 5539 5531 5524 5515 5505 5497 5492 5486 5480 5475 5469 5463 5457
5839 5840 5842 5843 5845 5846 5847 5848 5848 5849 5849 5850 5851 5851 5851 5851 5851 5851 5850 5849 5849 5848 5847 5845 5844 5842 5840 5838 5836 5834 5832 5830 5827 5824 5821 5818 5814 5811 5808 5804 5800 5797 5792 5787 5782 5778 5773 5768 5762 5757 5752 5747 5741 5735 5728 5721 5714 5707 5700 5692 5682 5672 5660 5651 5643 5632 5620 5612 5603 5591 5581 5574 5568 5561 5549 5538 5531 5522 5510 5500 5494 5487 5481 5475 5469 5465 5460 5454
5840 5842 5843 5844 5846 5847 5847 5848 5849 5849 5850 5850 5851 5851 5851 5851 5851 5850 5850 5849 5849 5848 5847 5845 5843 5841 5840 5838 5836 5833 5831 5829 5826 5823 5820 5816 5812 5809 5805 5801 5798 5794 5790 5786 5781 5777 5773 5768 5762 5756 5750 5744 5738 5731 5724 5717 5708 5698 5688 5678 5665 5655 5647 5639 5631 5626 5621 5612 5601 5590 5583 5576 5568 5557 5545 5537 5528 5516 5505 5498 5491 5484 5477 5471 5466 5461 5456 5451
5841 5843 5844 5845 5846 5847 5848 5848 5849 5850 5850 5851 5851 5851 5851 5851 5851 5850 5850 5849 5849 5847 5846 5844 5843 5841 5839 5837 5835 5833 5830 5828 5825 5822 5818 5815 5812 5808 5804 5800 5796 5792 5788 5784 5779 5773 5769 5764 5759 5753 5746 5740 5733 5725 5717 5709 5702 5692 5682 5673 5663 5652 5643 5634 5626 5621 5617 5610 5602 5594 5584 5573 5562 5552 5544 5536 5524 5512 5503 5495 5488 5483 5477 5470 5465 5460 5454 5448
5843 5844 5845 5846 5847 5848 5848 5849 5849 5850 5850 5851 5851 5851 5851 5851 5851 5850 5850 5849 5848 5847 5846 5844 5842 5841 5839 5837 5834 5832 5829 5826 5824 5820 5817 5814 5811 5807 5803 5799 5794 5790 5786 5782 5777 5771 5766 5761 5756 5750 5743 5736 5729 5722 5715 5707 5699 5691 5682 5674 5668 5659 5648 5638 5629 5621 5615 5611 5604 5595 5585 5575 5564 5555 5547 5536 5521 5510 5502 5494 5488 5482 5476 5470 5464 5458 5453 5447
5844 5845 5846 5847 5847 5848 5849 5849 5850 5850 5851 5851 5851 5851 5851 5851 5850 5850 5849 5849 5848 5847 5845 5844 5842 5840 5838 5836 5833 5831 5828 5825 5822 5819 5816 5813 5810 5806 5801 5797 5793 5788 5784 5780 5775 5770 5764 5759 5754 5748 5742 5735 5727 5720 5713 5705 5697 5690 5682 5673 5665 5658 5651 5644 5637 5630 5622 5614 5604 5593 5582 5574 5564 5555 5545 5533 5520 5511 5503 5496 5488 5480 5473 5468 5462 5456 5450 5444
5844 5845 5846 5847 5848 5848 5849 5850 5850 5850 5851 5851 5851 5851 5851 5851 5850 5849 5849 5848 5847 5846 5845 5843 5842 5840 5838 5835 5832 5829 5826 5823 5820 5818 5815 5811 5808 5804 5800 5796 5791 5786 5782 5778 5773 5769 5763 5757 5752 5746 5740 5733 5726 5719 5712 5705 5696 5688 5681 5672 5663 5655 5649 5642 5637 5631 5622 5612 5602 5590 5576 5566 5559 5551 5543 5532 5521 5513 5506 5498 5488 5479 5473 5467 5460 5454 5447 5441
5845 5846 5847 5847 5848 5849 5849 5850 5850 5850 5851 5851 5851 5850 5850 5850 5850 5849 5848 5848 5847 5845 5844 5843 5841 5839 5837 5834 5831 5828 5825 5822 5819 5816 5813 5810 5806 5802 5798 5794 5790 5785 5780 5775 5771 5767 5762 5756 5750 5744 5738 5731 5724 5716 5709 5703 5696 5689 5681 5672 5663 5655 5647 5639 5631 5622 5614 5605 5599 5591 5579 5567 5558 5549 5540 5529 5520 5512 5505 5497 5488 5479 5471 5464 5458 5452 5445 5438
5846 5847 5847 5848 5848 5849 5849 5850 5850 5850 5850 5850 5850 5850 5850 5850 5849 5848 5848 5847 5846 5845 5843 5842 5840 5838 5836 5833 5830 5827 5824 5821 5818 5815 5812 5808 5805 5801 5797 5793 5788 5783 5778 5774 5769 5765 5761 5755 5749 5742 5736 5730 5723 5715 5707 5700 5693 5686 5678 5670 5662 5653 5643 5636 5628 5620 5612 5603 5593 5586 5578 5568 5559 5550 5539 5529 5520 5511 5501 5494 5486 5477 5469 5461 5455 5449 5442 5436
5846 5847 5848 5848 5849 5849 5850 5850 5850 5850 5850 5850 5850 5850 5850 5849 5849 5848 5847 5846 5845 5844 5843 5841 5840 5837 5835 5832 5829 5826 5824 5821 5817 5814 5811 5807 5804 5800 5796 5791 5787 5782 5777 5772 5767 5763 5759 5754 5749 5742 5736 5729 5722 5714 5706 5698 5689 5681 5674 5668 5663 5655 5646 5637 5627 5617 5607 5598 5589 5582 5575 5568 5558 5547 5537 5529 5522 5512 5501 5493 5485 5476 5468 5460 5453 5447 5441 5434
5847 5847 5848 5848 5849 5849 5849 5849 5850 5850 5850 5850 5850 5850 5849 5849 5848 5847 5846 5845 5844 5843 5842 5840 5838 5836 5834 5831 5828 5825 5823 5819 5816 5813 5809 5806 5802 5798 5794 5790 5786 5782 5777 5772 5766 5760 5756 5752 5747 5741 5735 5729 5722 5714 5705 5697 5690 5683 5676 5670 5663 5657 5649 5640 5630 5620 5607 5597 5589 5580 5571 5564 5553 5543 5536 5531 5523 5513 5504 5495 5487 5477 5468 5460 5453 5446 5440 5433
5847 5848 5848 5848 5849 5849 5849 5849 5849 5850 5850 5849 5849 5849 5849 5848 5847 5846 5845 5844 5843 5842 5841 5839 5837 5835 5832 5830 5827 5824 5821 5818 5815 5812 5808 5805 5801 5797 5793 5789 5785 5780 5776 5771 5765 5759 5754 5749 5745 5739 5733 5727 5720 5712 5705 5698 5692 5687 5679 5672 5664 5656 5647 5638 5630 5622 5612 5602 5594 5585 5575 5566 5555 5547 5542 5535 5525 5516 5507 5497 5488 5478 5469 5460 5453 5446 5439 5432
5847 5848 5848 5848 5849 5849 5849 5849 5849 5849 5849 5849 5849 5848 5848 5847 5846 5845 5844 5843 5842 5841 5840 5838 5836 5833 5831 5828 5826 5823 5820 5817 5814 5811 5807 5804 5800 5795 5791 5787 5783 5779 5774 5770 5764 5759 5753 5747 5743 5739 5734 5729 5722 5715 5708 5701 5694 5687 5679 5671 5662 5653 5645 5637 5628 5620 5612 5601 5592 5586 5579 5571 5563 5556 5548 5539 5530 5521 5510 5498 5487 5478 5469 5460 5453 5446 5439 5432
5848 5848 5848 5848 5848 5849 5849 5849 5849 5849 5848 5848 5848 5848 5847 5846 5845 5844 5843 5842 5841 5840 5838 5837 5834 5832 5830 5827 5824 5822 5819 5816 5813 5810 5806 5802 5798 5794 5790 5786 5782 5777 5773 5768 5763 5758 5752 5745 5740 5736 5732 5728 5723 5716 5709 5701 5693 5685 5677 5669 5660 5651 5643 5635 5628 5620 5612 5602 5593 5586 5582 5575 5568 5559 5551 5543 5535 5524 5513 5500 5488 5477 5468 5460 5453 5445 5439 5433
5848 5848 5848 5848 5848 5848 5848 5848 5848 5848 5848 5847 5847 5847 5846 5845 5844 5843 5842 5841 5840 5839 5837 5835 5833 5831 5828 5826 5823 5820 5818 5814 5811 5808 5804 5801 5797 5793 5789 5785 5780 5776 5771 5767 5762 5757 5751 5745 5738 5732 5726 5721 5715 5709 5703 5697 5690 5682 5675 5667 5658 5650 5642 5634 5626 5617 5610 5606 5599 5590 5583 5578 5571 5562 5554 5546 5536 5524 5514 5503 5491 5479 5469 5461 5452 5445 5438 5433
5848 5848 5848 5848 5848 5848 5848 5848 5847 5847 5847 5847 5846 5846 5845 5844 5843 5842 5841 5840 5839 5838 5836 5834 5832 5829 5827 5824 5822 5819 5816 5813 5810 5806 5803 5799 5796 5792 5788 5783 5779 5774 5770 5766 5761 5756 5751 5745 5738 5731 5725 5719 5713 5707 5701 5695 5689 5682 5675 5666 5657 5649 5642 5634 5627 5619 5612 5608 5601 5590 5581 5576 5569 5561 5553 5543 5532 5520 5511 5502 5493 5482 5471 5461 5452 5443 5437 5433
5848 5848 5848 5848 5848 5848 5847 5847 5847 5846 5846 5846 5845 5845 5844 5843 5842 5841 5840 5839 5838 5836 5834 5833 5831 5828 5826 5823 5820 5818 5814 5811 5808 5805 5801 5798 5794 5790 5786 5782 5777 5773 5768 5764 5759 5754 5750 5745 5738 5731 5725 5720 5714 5708 5702 5695 5689 5682 5675 5666 5657 5649 5642 5635 5627 5620 5612 5605 5600 5595 5585 5575 5566 5556 5546 5536 5528 5520 5510 5499 5489 5480 5470 5461 5451 5444 5438 5432
5847 5847 5847 5847 5847 5847 5847 5847 5846 5845 5845 5845 5844 5843 5842 5841 5841 5840 5839 5837 5836 5835 5833 5831 5829 5827 5824 5822 5819 5816 5813 5810 5806 5803 5800 5796 5792 5788 5784 5780 5776 5771 5767 5762 5757 5753 5749 5744 5739 5732 5725 5719 5713 5708 5702 5695 5689 5682 5674 5665 5657 5649 5642 5636 5628 5621 5614 5607 5601 5595 5585 5574 5565 5556 5544 5534 5526 5518 5507 5496 5487 5479 5470 5461 5452 5445 5438 5432
5847 5847 5847 5847 5847 5846 5846 5846 5845 5845 5844 5843 5843 5842 5841 5840 5839 5838 5837 5836 5835 5833 5831 5830 5828 5825 5823 5820 5817 5814 5811 5808 5805 5801 5798 5794 5790 5786 5782 5778 5774 5769 5765 5760 5756 5752 5747 5743 5738 5732 5725 5719 5712 5707 5702 5695 5689 5682 5673 5665 5658 5650 5642 5636 5630 5623 5617 5609 5600 5592 5584 5575 5565 5555 5547 5540 5530 5519 5509 5500 5491 5482 5473 5463 5454 5446 5438 5432
5847 5847 5846 5846 5846 5846 5845 5845 5845 5844 5843 5842 5841 5840 5840 5839 5838 5837 5836 5834 5833 5831 5830 5828 5826 5824 5821 5818 5816 5813 5810 5807 5803 5800 5797 5793 5789 5785 5781 5776 5772 5768 5763 5759 5754 5750 5745 5741 5736 5732 5726 5719 5713 5707 5700 5694 5688 5681 5673 5665 5659 5651 5642 5635 5629 5622 5615 5608 5600 5593 5587 5579 5569 5560 5552 5543 5533 5524 5515 5507 5497 5486 5475 5466 5457 5448 5439 5432
5846 5846 5846 5845 5845 5845 5844 5844 5844 5843 5842 5841 5840 5839 5838 5837 5836 5835 5834 5833 5831 5830 5828 5826 5824 5822 5819 5817 5814 5811 5808 5805 5802 5799 5795 5791 5787 5783 5779 5775 5771 5766 5762 5757 5753 5748 5743 5738 5734 5730 5724 5719 5713 5706 5700 5695 5688 5681 5674 5667 5660 5652 5643 5634 5628 5621 5614 5607 5600 5592 5584 5578 5572 5564 5553 5543 5535 5528 5519 5510 5500 5488 5478 5469 5460 5451 5441 5433
5845 5845 5845 5844 5844 5844 5843 5843 5843 5842 5841 5840 5839 5837 5836 5835 5834 5833 5832 5831 5829 5828 5826 5824 5822 5820 5818 5815 5812 5809 5806 5803 5800 5797 5793 5790 5786 5782 5778 5774 5769 5765 5760 5756 5751 5746 5741 5736 5731 5727 5722 5717 5712 5705 5699 5693 5686 5679 5673 5667 5660 5652 5644 5635 5627 5619 5611 5602 5595 5588 5582 5576 5570 5561 5552 5544 5535 5527 5518 5509 5498 5487 5478 5470 5461 5451 5442 5433